TimeEST,TemperatureF,Dew PointF,Humidity,Sea Level PressureIn,VisibilityMPH,Wind Direction,Wind SpeedMPH,Gust SpeedMPH,PrecipitationIn,Events,Conditions,WindDirDegrees,DateUTC
12:15 AM,17.4,8.6,68,29.91,10.0,NW,4.6,-,N/A,,Clear,310,2013-01-02 05:15:00
12:35 AM,17.6,8.6,68,29.91,10.0,West,6.9,-,N/A,,Clear,280,2013-01-02 05:35:00
12:56 AM,18.0,9.1,68,29.91,10.0,West,6.9,-,N/A,,Clear,270,2013-01-02 05:56:00
1:15 AM,18.0,9.0,68,29.90,10.0,Calm,Calm,-,N/A,,Clear,0,2013-01-02 06:15:00
1:35 AM,18.3,9.1,67,29.90,10.0,West,3.5,-,N/A,,Scattered Clouds,260,2013-01-02 06:35:00
1:55 AM,18.0,9.5,70,29.90,10.0,WSW,4.6,-,N/A,,Mostly Cloudy,250,2013-01-02 06:55:00
2:15 AM,17.6,9.5,71,29.90,10.0,Calm,Calm,-,N/A,,Scattered Clouds,0,2013-01-02 07:15:00
2:35 AM,18.3,10.6,72,29.91,10.0,WSW,4.6,-,N/A,,Mostly Cloudy,250,2013-01-02 07:35:00
2:55 AM,19.2,11.8,73,29.92,10.0,West,4.6,-,N/A,,Overcast,270,2013-01-02 07:55:00
3:15 AM,19.9,12.7,74,29.92,10.0,Calm,Calm,-,N/A,,Overcast,0,2013-01-02 08:15:00
3:36 AM,19.8,12.9,75,29.93,10.0,WNW,3.5,-,N/A,,Overcast,290,2013-01-02 08:36:00
3:55 AM,19.4,13.1,76,29.93,10.0,NW,4.6,-,N/A,,Overcast,310,2013-01-02 08:55:00
4:15 AM,19.0,12.9,77,29.94,10.0,WNW,4.6,-,N/A,,Overcast,290,2013-01-02 09:15:00
4:35 AM,19.2,13.1,77,29.94,10.0,West,4.6,-,N/A,Snow,Light Snow,280,2013-01-02 09:35:00
4:55 AM,19.2,13.1,77,29.94,10.0,NNW,4.6,-,N/A,Snow,Light Snow,340,2013-01-02 09:55:00
5:16 AM,18.5,12.7,78,29.95,10.0,Calm,Calm,-,N/A,Snow,Light Snow,0,2013-01-02 10:16:00
5:35 AM,18.5,12.4,77,29.95,10.0,Calm,Calm,-,N/A,,Overcast,0,2013-01-02 10:35:00
5:55 AM,18.3,12.9,79,29.95,10.0,North,3.5,-,N/A,,Overcast,360,2013-01-02 10:55:00
6:16 AM,18.5,13.1,79,29.97,10.0,Calm,Calm,-,N/A,,Overcast,0,2013-01-02 11:16:00
6:35 AM,18.7,13.6,81,29.98,10.0,NNW,3.5,-,N/A,,Overcast,330,2013-01-02 11:35:00
6:55 AM,19.0,13.8,80,29.99,10.0,NW,3.5,-,N/A,Snow,Light Snow,320,2013-01-02 11:55:00
7:15 AM,18.5,13.8,82,29.99,10.0,Calm,Calm,-,N/A,,Overcast,0,2013-01-02 12:15:00
7:35 AM,18.3,13.6,82,30.00,10.0,Calm,Calm,-,N/A,,Overcast,0,2013-01-02 12:35:00
7:55 AM,18.1,13.8,83,30.00,10.0,Calm,Calm,-,N/A,Snow,Light Snow,0,2013-01-02 12:55:00
8:15 AM,18.5,14.9,86,30.01,10.0,Calm,Calm,-,N/A,Snow,Light Snow,0,2013-01-02 13:15:00
8:35 AM,18.5,14.9,86,30.02,7.0,Calm,Calm,-,N/A,Snow,Light Snow,0,2013-01-02 13:35:00
8:55 AM,18.5,15.4,88,30.03,7.0,NE,4.6,-,N/A,Snow,Light Snow,50,2013-01-02 13:55:00
9:15 AM,18.3,14.9,86,30.04,7.0,NE,4.6,-,N/A,Snow,Light Snow,50,2013-01-02 14:15:00
9:35 AM,17.6,14.5,88,30.04,5.0,ENE,4.6,-,N/A,Snow,Light Snow,60,2013-01-02 14:35:00
9:55 AM,17.6,14.0,86,30.05,4.0,NE,4.6,-,N/A,Snow,Light Snow,50,2013-01-02 14:55:00
10:15 AM,17.4,13.8,86,30.06,4.0,East,4.6,-,N/A,Snow,Light Snow,80,2013-01-02 15:15:00
10:35 AM,17.2,13.8,86,30.07,4.0,NE,3.5,-,N/A,Snow,Light Snow,50,2013-01-02 15:35:00
10:55 AM,17.6,14.0,86,30.07,4.0,East,5.8,-,N/A,Snow,Light Snow,80,2013-01-02 15:55:00
11:15 AM,17.6,14.0,86,30.08,3.0,East,4.6,-,N/A,Snow,Light Snow,80,2013-01-02 16:15:00
11:35 AM,17.6,13.6,84,30.08,4.0,East,4.6,-,N/A,Snow,Light Snow,80,2013-01-02 16:35:00
11:55 AM,17.4,13.6,85,30.08,3.0,East,5.8,-,N/A,Snow,Light Snow,80,2013-01-02 16:55:00
12:15 PM,17.4,13.6,85,30.08,3.0,East,8.1,-,N/A,Snow,Light Snow,90,2013-01-02 17:15:00
12:35 PM,17.1,13.5,86,30.08,3.0,East,5.8,-,N/A,Snow,Light Snow,80,2013-01-02 17:35:00
12:55 PM,17.1,13.5,86,30.08,5.0,ENE,5.8,-,N/A,Snow,Light Snow,70,2013-01-02 17:55:00
1:15 PM,17.4,14.0,86,30.08,4.0,East,3.5,-,N/A,Snow,Light Snow,100,2013-01-02 18:15:00
1:35 PM,17.6,13.6,84,30.08,4.0,East,4.6,-,N/A,Snow,Light Snow,80,2013-01-02 18:35:00
1:56 PM,17.2,13.6,86,30.08,3.0,ENE,4.6,-,N/A,Snow,Light Snow,70,2013-01-02 18:56:00
2:15 PM,17.6,14.0,86,30.08,2.0,East,6.9,-,N/A,Snow,Light Snow,90,2013-01-02 19:15:00
2:35 PM,17.6,14.2,86,30.08,2.5,East,8.1,-,N/A,Snow,Light Snow,100,2013-01-02 19:35:00
2:55 PM,17.6,14.5,88,30.08,2.5,ESE,5.8,-,N/A,Snow,Light Snow,110,2013-01-02 19:55:00
3:15 PM,17.6,14.5,88,30.08,2.5,East,6.9,-,N/A,Snow,Light Snow,90,2013-01-02 20:15:00
3:35 PM,17.6,14.9,89,30.09,2.5,ESE,8.1,-,N/A,Snow,Light Snow,110,2013-01-02 20:35:00
3:55 PM,17.4,14.4,88,30.08,2.5,East,5.8,-,N/A,Snow,Light Snow,100,2013-01-02 20:55:00
4:15 PM,17.1,13.8,87,30.09,3.0,East,6.9,-,N/A,Snow,Light Snow,100,2013-01-02 21:15:00
4:36 PM,16.7,13.8,88,30.09,5.0,ESE,4.6,-,N/A,Snow,Light Snow,110,2013-01-02 21:36:00
4:55 PM,16.5,13.1,86,30.08,7.0,ESE,6.9,-,N/A,Snow,Light Snow,110,2013-01-02 21:55:00
5:15 PM,16.3,13.1,87,30.09,5.0,ESE,4.6,-,N/A,Snow,Light Snow,110,2013-01-02 22:15:00
5:36 PM,15.8,12.9,88,30.09,5.0,ESE,3.5,-,N/A,Snow,Light Snow,110,2013-01-02 22:36:00
5:55 PM,15.6,12.7,88,30.10,5.0,ESE,5.8,-,N/A,Snow,Light Snow,110,2013-01-02 22:55:00
6:15 PM,15.3,12.2,88,30.10,7.0,East,3.5,-,N/A,Snow,Light Snow,90,2013-01-02 23:15:00
6:36 PM,15.1,12.2,88,30.10,7.0,East,3.5,-,N/A,Snow,Light Snow,80,2013-01-02 23:36:00
6:55 PM,15.3,12.2,88,30.10,7.0,East,4.6,-,N/A,Snow,Light Snow,80,2013-01-02 23:55:00
7:35 PM,14.9,12.2,89,30.09,5.0,ESE,6.9,-,N/A,Snow,Light Snow,110,2013-01-03 00:35:00
7:55 PM,14.9,12.2,89,30.09,3.0,East,3.5,-,N/A,Snow,Light Snow,90,2013-01-03 00:55:00
8:15 PM,15.3,12.6,89,30.09,3.0,East,4.6,-,N/A,Snow,Light Snow,100,2013-01-03 01:15:00
8:35 PM,15.4,12.7,89,30.09,3.0,East,5.8,-,N/A,Snow,Light Snow,90,2013-01-03 01:35:00
8:55 PM,15.4,12.9,90,30.08,5.0,ESE,4.6,-,N/A,Snow,Light Snow,120,2013-01-03 01:55:00
9:16 PM,15.3,12.7,90,30.08,7.0,ESE,4.6,-,N/A,Snow,Light Snow,110,2013-01-03 02:16:00
9:35 PM,15.1,12.4,89,30.07,7.0,ESE,4.6,-,N/A,Snow,Light Snow,110,2013-01-03 02:35:00
9:55 PM,15.4,12.7,89,30.06,7.0,East,4.6,-,N/A,Snow,Light Snow,100,2013-01-03 02:55:00
10:16 PM,15.6,13.1,90,30.06,5.0,ESE,5.8,-,N/A,Snow,Light Snow,120,2013-01-03 03:16:00
10:35 PM,16.0,13.5,90,30.06,10.0,ESE,5.8,-,N/A,Snow,Light Snow,110,2013-01-03 03:35:00
10:55 PM,16.3,14.0,90,30.06,7.0,ESE,4.6,-,N/A,Snow,Light Snow,110,2013-01-03 03:55:00
11:15 PM,16.5,14.2,90,30.06,7.0,ESE,4.6,-,N/A,Snow,Light Snow,120,2013-01-03 04:15:00
11:35 PM,16.7,14.5,91,30.05,10.0,East,4.6,-,N/A,Snow,Light Snow,100,2013-01-03 04:35:00
11:55 PM,17.1,14.9,91,30.05,10.0,ESE,5.8,-,N/A,Snow,Light Snow,110,2013-01-03 04:55:00